• In Belarus
  • List of Countries
  • For 7 days
  • Water Temperature
  • Satellite Maps
  • Weather Map
  • Weather Widgets
  • user-avatar
    Login

    Hourly Weather Francistown

    Today, 18 July, Wednesday

    Time Temperature Precipitation Wind Pressure Humidity
    00:00 +10°C° 0 mm 4 mps 685 mmHg 77%
    01:00 +8°C° 0 mm 4 mps 685 mmHg 80%
    02:00 +8°C° 0 mm 4 mps 685 mmHg 84%
    03:00 +8°C° 0 mm 4 mps 685 mmHg 85%
    04:00 +8°C° 0 mm 5 mps 685 mmHg 86%
    05:00 +8°C° 0 mm 5 mps 685 mmHg 87%
    06:00 +9°C° 0 mm 5 mps 685 mmHg 85%
    07:00 +9°C° 0 mm 6 mps 685 mmHg 83%
    08:00 +10°C° 0 mm 6 mps 685 mmHg 79%
    09:00 +11°C° 0 mm 6 mps 685 mmHg 74%
    10:00 +12°C° 0 mm 7 mps 686 mmHg 69%
    11:00 +12°C° 0 mm 7 mps 686 mmHg 64%
    12:00 +14°C° 0 mm 7 mps 685 mmHg 61%
    13:00 +14°C° 0 mm 7 mps 685 mmHg 58%
    14:00 +15°C° 0 mm 5 mps 685 mmHg 54%
    15:00 +15°C° 0 mm 5 mps 684 mmHg 55%
    16:00 +15°C° 0 mm 5 mps 684 mmHg 56%
    17:00 +14°C° 0 mm 5 mps 684 mmHg 57%
    18:00 +13°C° 0 mm 4 mps 684 mmHg 61%
    19:00 +13°C° 0 mm 4 mps 684 mmHg 65%
    20:00 +12°C° 0 mm 4 mps 684 mmHg 69%
    21:00 +12°C° 0 mm 4 mps 685 mmHg 70%
    22:00 +11°C° 0 mm 4 mps 685 mmHg 72%
    23:00 +11°C° 0 mm 4 mps 685 mmHg 74%

    Tomorrow, 19 July, Thursday

    Time Temperature Precipitation Wind Pressure Humidity
    00:00 +10°C° 0 mm 4 mps 685 mmHg 76%
    01:00 +10°C° 0 mm 4 mps 684 mmHg 77%
    02:00 +10°C° 0 mm 4 mps 684 mmHg 79%
    03:00 +8°C° 0 mm 4 mps 684 mmHg 83%
    04:00 +8°C° 0 mm 4 mps 684 mmHg 86%
    05:00 +8°C° 0 mm 4 mps 684 mmHg 89%
    06:00 +8°C° 0 mm 5 mps 684 mmHg 88%
    07:00 +8°C° 0 mm 6 mps 684 mmHg 86%
    08:00 +9°C° 0 mm 6 mps 684 mmHg 85%
    09:00 +10°C° 0 mm 6 mps 684 mmHg 80%
    10:00 +11°C° 0 mm 6 mps 685 mmHg 75%
    11:00 +11°C° 0 mm 6 mps 685 mmHg 70%
    12:00 +13°C° 0 mm 6 mps 684 mmHg 66%
    13:00 +14°C° 0 mm 6 mps 684 mmHg 62%
    14:00 +15°C° 0 mm 6 mps 683 mmHg 58%
    15:00 +15°C° 0 mm 6 mps 683 mmHg 57%
    16:00 +15°C° 0 mm 6 mps 683 mmHg 56%
    17:00 +15°C° 0 mm 5 mps 683 mmHg 56%
    18:00 +14°C° 0 mm 5 mps 683 mmHg 60%
    19:00 +12°C° 0 mm 4 mps 683 mmHg 64%
    20:00 +11°C° 0 mm 4 mps 683 mmHg 68%
    21:00 +11°C° 0 mm 4 mps 683 mmHg 70%
    22:00 +10°C° 0 mm 3 mps 683 mmHg 71%
    23:00 +10°C° 0 mm 3 mps 683 mmHg 73%

    Day after tomorrow, 20 July, Friday

    Time Temperature Precipitation Wind Pressure Humidity
    00:00 +10°C° 0 mm 3 mps 683 mmHg 74%
    01:00 +9°C° 0 mm 3 mps 683 mmHg 76%
    02:00 +9°C° 0 mm 3 mps 683 mmHg 78%
    03:00 +8°C° 0 mm 3 mps 682 mmHg 80%
    04:00 +8°C° 0 mm 3 mps 682 mmHg 83%
    05:00 +8°C° 0 mm 3 mps 682 mmHg 85%
    06:00 +7°C° 0 mm 4 mps 682 mmHg 82%
    07:00 +8°C° 0 mm 4 mps 683 mmHg 80%
    08:00 +9°C° 0 mm 5 mps 683 mmHg 77%
    09:00 +12°C° 0 mm 5 mps 684 mmHg 69%
    10:00 +14°C° 0 mm 5 mps 684 mmHg 61%
    11:00 +16°C° 0 mm 5 mps 685 mmHg 52%
    12:00 +17°C° 0 mm 5 mps 684 mmHg 48%
    13:00 +19°C° 0 mm 4 mps 683 mmHg 44%
    14:00 +20°C° 0 mm 4 mps 683 mmHg 40%
    15:00 +20°C° 0 mm 4 mps 682 mmHg 40%
    16:00 +20°C° 0 mm 4 mps 682 mmHg 41%
    17:00 +19°C° 0 mm 4 mps 682 mmHg 42%
    18:00 +18°C° 0 mm 4 mps 682 mmHg 47%
    19:00 +15°C° 0 mm 4 mps 682 mmHg 52%
    20:00 +14°C° 0 mm 4 mps 682 mmHg 57%
    21:00 +13°C° 0 mm 4 mps 682 mmHg 60%
    22:00 +13°C° 0 mm 5 mps 682 mmHg 64%
    23:00 +12°C° 0 mm 5 mps 683 mmHg 68%

    21 July, Saturday

    Time Temperature Precipitation Wind Pressure Humidity
    00:00 +12°C° 0 mm 4 mps 683 mmHg 72%
    01:00 +11°C° 0 mm 4 mps 682 mmHg 76%
    02:00 +11°C° 0 mm 4 mps 682 mmHg 80%
    03:00 +10°C° 0 mm 3 mps 682 mmHg 83%
    04:00 +10°C° 0 mm 3 mps 682 mmHg 86%
    05:00 +10°C° 0 mm 3 mps 682 mmHg 89%
    06:00 +10°C° 0 mm 4 mps 682 mmHg 86%
    07:00 +11°C° 0 mm 4 mps 683 mmHg 82%
    08:00 +10°C° 0 mm 5 mps 684 mmHg 78%
    09:00 +13°C° 0 mm 5 mps 684 mmHg 70%
    10:00 +16°C° 0 mm 5 mps 685 mmHg 61%
    11:00 +19°C° 0 mm 5 mps 685 mmHg 52%
    12:00 +20°C° 0 mm 5 mps 684 mmHg 48%
    13:00 +21°C° 0 mm 5 mps 684 mmHg 43%
    14:00 +22°C° 0 mm 5 mps 683 mmHg 39%
    15:00 +21°C° 0 mm 5 mps 683 mmHg 40%
    16:00 +21°C° 0 mm 5 mps 683 mmHg 41%
    17:00 +20°C° 0 mm 5 mps 682 mmHg 42%
    18:00 +19°C° 0 mm 5 mps 683 mmHg 47%
    19:00 +17°C° 0 mm 5 mps 683 mmHg 51%
    20:00 +15°C° 0 mm 4 mps 683 mmHg 56%
    21:00 +15°C° 0 mm 4 mps 683 mmHg 58%
    22:00 +14°C° 0 mm 4 mps 684 mmHg 61%
    23:00 +14°C° 0 mm 4 mps 684 mmHg 64%

    22 July, Sunday

    Time Temperature Precipitation Wind Pressure Humidity
    00:00 +13°C° 0 mm 4 mps 684 mmHg 67%
    01:00 +12°C° 0 mm 4 mps 683 mmHg 69%
    02:00 +12°C° 0 mm 3 mps 683 mmHg 72%
    03:00 +11°C° 0 mm 3 mps 683 mmHg 74%
    04:00 +11°C° 0 mm 3 mps 683 mmHg 76%
    05:00 +10°C° 0 mm 3 mps 683 mmHg 77%
    06:00 +11°C° 0 mm 4 mps 684 mmHg 75%
    07:00 +12°C° 0 mm 4 mps 684 mmHg 74%
    08:00 +12°C° 0 mm 5 mps 685 mmHg 72%
    09:00 +14°C° 0 mm 5 mps 685 mmHg 67%
    10:00 +16°C° 0 mm 6 mps 685 mmHg 61%
    11:00 +19°C° 0 mm 6 mps 686 mmHg 55%
    12:00 +20°C° 0 mm 6 mps 685 mmHg 52%
    13:00 +21°C° 0 mm 5 mps 685 mmHg 48%
    14:00 +22°C° 0 mm 5 mps 684 mmHg 44%
    15:00 +21°C° 0 mm 5 mps 684 mmHg 45%
    16:00 +21°C° 0 mm 5 mps 683 mmHg 47%
    17:00 +20°C° 0 mm 5 mps 683 mmHg 48%
    18:00 +19°C° 0 mm 5 mps 683 mmHg 54%
    19:00 +17°C° 0 mm 5 mps 683 mmHg 60%
    20:00 +15°C° 0 mm 4 mps 684 mmHg 65%
    21:00 +15°C° 0 mm 4 mps 684 mmHg 68%
    22:00 +14°C° 0 mm 4 mps 684 mmHg 71%
    23:00 +14°C° 0 mm 4 mps 684 mmHg 75%

    23 July, Monday

    Time Temperature Precipitation Wind Pressure Humidity
    00:00 +13°C° 0 mm 3 mps 684 mmHg 76%
    01:00 +13°C° 0 mm 3 mps 683 mmHg 78%
    02:00 +12°C° 0 mm 3 mps 683 mmHg 80%
    03:00 +12°C° 0 mm 3 mps 683 mmHg 81%
    04:00 +11°C° 0 mm 4 mps 683 mmHg 82%
    05:00 +11°C° 0 mm 4 mps 683 mmHg 83%
    06:00 +12°C° 0 mm 4 mps 684 mmHg 81%
    07:00 +12°C° 0 mm 5 mps 684 mmHg 79%
    08:00 +13°C° 0 mm 6 mps 685 mmHg 76%
    09:00 +15°C° 0 mm 6 mps 685 mmHg 68%
    10:00 +17°C° 0 mm 6 mps 685 mmHg 59%
    11:00 +20°C° 0 mm 6 mps 685 mmHg 51%
    12:00 +21°C° 0 mm 6 mps 685 mmHg 48%
    13:00 +21°C° 0 mm 6 mps 684 mmHg 44%
    14:00 +22°C° 0 mm 6 mps 683 mmHg 41%
    15:00 +22°C° 0 mm 6 mps 683 mmHg 43%
    16:00 +21°C° 0 mm 6 mps 683 mmHg 45%
    17:00 +20°C° 0 mm 6 mps 683 mmHg 48%
    18:00 +19°C° 0 mm 5 mps 683 mmHg 53%
    19:00 +17°C° 0 mm 5 mps 683 mmHg 59%
    20:00 +15°C° 0 mm 4 mps 683 mmHg 65%
    21:00 +15°C° 0 mm 4 mps 683 mmHg 67%
    22:00 +14°C° 0 mm 4 mps 683 mmHg 70%
    23:00 +13°C° 0 mm 3 mps 683 mmHg 72%
    Show more